Weather History for Mandan, ND

Change the Weather History Date:

Sunday, November 4, 2012

  Actual Average (KBIS) Record (KBIS)
Temperature  
Mean Temperature 30 °F 36 °F  
Max Temperature 32 °F 47 °F 75 °F (1975)
Min Temperature 28 °F 24 °F -5 °F (1951)
Degree Days  
Heating Degree Days 35 30  
Month to date heating degree days 115  
Since 1 July heating degree days 1027  
Cooling Degree Days 0 0  
Month to date cooling degree days 0  
Year to date cooling degree days 520  
Moisture  
Dew Point 30 °F    
Average Humidity 99    
Maximum Humidity 100    
Minimum Humidity 93    
Precipitation  
Precipitation 0.12 in 0.03 in 0.25 in (1958)
Month to date precipitation 0.12  
Year to date precipitation 16.77  
Snow  
Snow 0.00 in 0.30 in 2.80 in (1959)
Month to date snowfall 0.9  
Since 1 July snowfall 3.3  
Since 1 September snowfall 3.3  
Snow Depth -    
Sea Level Pressure  
Sea Level Pressure 30.15 in    
Wind  
Wind Speed 6 mph (SE)    
Max Wind Speed 14 mph    
Max Gust Speed -    
Visibility 5 miles    
Events Fog , Rain , Snow    
T = Trace of Precipitation, MM = Missing Value Source: NWS Daily Summary

Daily Weather History Graph

Daily Weather History Graph

Search for Another Location

Airport:

Trip Planner

Search our weather history database for the weather conditions in past years. The results will help you decide how hot, cold, wet, or windy it might be!

Date:

Astronomy

Nov. 04, 2012 Rise Set
Actual Time 7:30 AM CST 5:22 PM CST
Civil Twilight 6:58 AM CST 5:54 PM CST
Nautical Twilight 6:22 AM CST 6:30 PM CST
Astronomical Twilight 5:47 AM CST 7:06 PM CST
Moon 9:59 PM CST (11/4) 12:19 PM CST (11/4)
Length of Visible Light 10h 55m
Length of Day
9h 51m
Waning Gibbous, 72% of the Moon is Illuminated
Nov 4
Waning Gibbous
Nov 6
Last Quarter
Nov 13
New
Nov 20
First Quarter
Nov 28
Full

Hourly Weather History & Observations

Time (CST) Temp. Windchill Dew Point Humidity Pressure Visibility Wind Dir Wind Speed Gust Speed Precip Events Conditions
12:15 AM 28.4 °F 22.2 °F 28.4 °F 100% 30.20 in 10.0 mi ESE 5.8 mph - N/A   Overcast
12:35 AM 28.4 °F 21.2 °F 28.4 °F 100% 30.19 in 10.0 mi SE 6.9 mph - N/A   Overcast
12:55 AM 28.4 °F 22.2 °F 26.6 °F 93% 30.19 in 10.0 mi ESE 5.8 mph - N/A   Overcast
1:15 AM 28.4 °F 23.3 °F 26.6 °F 93% 30.20 in 10.0 mi SE 4.6 mph - N/A   Overcast
1:35 AM 28.4 °F 22.2 °F 26.6 °F 93% 30.20 in 10.0 mi SSE 5.8 mph - N/A   Overcast
1:55 AM 28.4 °F 22.2 °F 26.6 °F 93% 30.20 in 10.0 mi SSE 5.8 mph - N/A   Overcast
1:15 AM 28.4 °F 21.2 °F 26.6 °F 93% 30.20 in 10.0 mi SSE 6.9 mph - N/A   Overcast
1:35 AM 28.4 °F 23.3 °F 26.6 °F 93% 30.19 in 10.0 mi SSE 4.6 mph - N/A   Overcast
1:55 AM 28.4 °F 22.2 °F 26.6 °F 93% 30.19 in 10.0 mi SSE 5.8 mph - N/A   Overcast
2:15 AM 28.4 °F 20.4 °F 26.6 °F 93% 30.18 in 10.0 mi SE 8.1 mph - N/A   Overcast
2:35 AM 28.4 °F 21.2 °F 28.4 °F 100% 30.18 in 10.0 mi SSE 6.9 mph - N/A   Overcast
2:55 AM 28.4 °F 22.2 °F 28.4 °F 100% 30.17 in 10.0 mi SSE 5.8 mph - N/A   Overcast
3:15 AM 28.4 °F 22.2 °F 28.4 °F 100% 30.17 in 10.0 mi SSE 5.8 mph - N/A   Mostly Cloudy
3:35 AM 28.4 °F 21.2 °F 28.4 °F 100% 30.16 in 10.0 mi SE 6.9 mph - N/A   Overcast
3:55 AM 28.4 °F 22.2 °F 28.4 °F 100% 30.16 in 10.0 mi SSE 5.8 mph - N/A   Overcast
4:15 AM 28.4 °F 21.2 °F 28.4 °F 100% 30.15 in 10.0 mi SE 6.9 mph - N/A   Overcast
4:35 AM 28.4 °F 21.2 °F 28.4 °F 100% 30.14 in 10.0 mi SE 6.9 mph - N/A   Overcast
4:55 AM 28.4 °F 21.2 °F 28.4 °F 100% 30.14 in 10.0 mi SE 6.9 mph - N/A   Mostly Cloudy
5:15 AM 28.4 °F 21.2 °F 28.4 °F 100% 30.14 in 10.0 mi SE 6.9 mph - N/A   Scattered Clouds
5:35 AM 28.4 °F 23.3 °F 28.4 °F 100% 30.14 in 10.0 mi SE 4.6 mph - N/A   Mostly Cloudy
5:55 AM 28.4 °F 22.2 °F 28.4 °F 100% 30.14 in 10.0 mi SE 5.8 mph - N/A   Overcast
6:15 AM 28.4 °F 22.2 °F 28.4 °F 100% 30.13 in 10.0 mi SSE 5.8 mph - N/A   Overcast
6:35 AM 28.4 °F 21.2 °F 28.4 °F 100% 30.13 in 10.0 mi SE 6.9 mph - N/A   Overcast
6:55 AM 28.4 °F 21.2 °F 28.4 °F 100% 30.13 in 10.0 mi SSE 6.9 mph - N/A   Overcast
7:15 AM 30.2 °F 23.4 °F 28.4 °F 93% 30.13 in 10.0 mi SSE 6.9 mph - N/A   Overcast
7:35 AM 30.2 °F 22.6 °F 30.2 °F 100% 30.13 in 6.0 mi SSE 8.1 mph - N/A Rain Light Freezing Rain
7:55 AM 30.2 °F 22.6 °F 30.2 °F 100% 30.13 in 5.0 mi South 8.1 mph - N/A Rain Light Freezing Rain
8:15 AM 30.2 °F 22.6 °F 30.2 °F 100% 30.13 in 5.0 mi SSE 8.1 mph - N/A   Overcast
8:35 AM 30.2 °F 23.4 °F 30.2 °F 100% 30.13 in 5.0 mi SSE 6.9 mph - N/A   Overcast
8:55 AM 30.2 °F 21.3 °F 30.2 °F 100% 30.12 in 3.0 mi SSE 10.4 mph - N/A   Overcast
9:15 AM 30.2 °F 21.9 °F 30.2 °F 100% 30.12 in 4.0 mi SSE 9.2 mph - N/A Rain Light Freezing Rain
9:35 AM 30.2 °F 21.3 °F 30.2 °F 100% 30.11 in 3.0 mi South 10.4 mph - N/A Rain Light Freezing Rain
9:55 AM 32.0 °F 22.1 °F 32.0 °F 100% 30.11 in 3.0 mi South 13.8 mph - N/A   Mostly Cloudy
10:35 AM 32.0 °F 23.6 °F 32.0 °F 100% 30.10 in 2.5 mi SSE 10.4 mph - N/A Rain Light Rain
10:55 AM 32.0 °F 23.0 °F 32.0 °F 100% 30.10 in 2.5 mi South 11.5 mph - N/A Rain Light Rain
11:15 AM 32.0 °F 22.5 °F 32.0 °F 100% 30.11 in 1.8 mi South 12.7 mph - 0.01 in Snow Light Snow
11:35 AM 32.0 °F 23.0 °F 32.0 °F 100% 30.11 in 1.0 mi South 11.5 mph - 0.04 in Snow Light Snow
11:55 AM 32.0 °F 23.6 °F 32.0 °F 100% 30.11 in 1.2 mi South 10.4 mph - 0.07 in Snow Light Snow
12:15 PM 32.0 °F 23.6 °F 32.0 °F 100% 30.10 in 1.2 mi South 10.4 mph - 0.01 in Snow Light Snow
12:35 PM 32.0 °F 24.2 °F 32.0 °F 100% 30.10 in 1.2 mi South 9.2 mph - 0.03 in Snow Light Snow
12:55 PM 32.0 °F 24.8 °F 32.0 °F 100% 30.09 in 1.5 mi SSE 8.1 mph - 0.05 in Snow Light Snow
1:15 PM 32.0 °F 24.2 °F 32.0 °F 100% 30.09 in 2.0 mi South 9.2 mph - N/A Snow Light Snow
1:35 PM 32.0 °F 24.2 °F 32.0 °F 100% 30.08 in 3.0 mi SSE 9.2 mph - N/A   Overcast
1:55 PM 32.0 °F 25.6 °F 32.0 °F 100% 30.08 in 3.0 mi SE 6.9 mph - N/A   Overcast
2:15 PM 32.0 °F 27.5 °F 32.0 °F 100% 30.09 in 4.0 mi SE 4.6 mph - N/A   Overcast
2:35 PM 32.0 °F 27.5 °F 32.0 °F 100% 30.09 in 4.0 mi SE 4.6 mph - N/A   Overcast
2:55 PM 32.0 °F 26.4 °F 32.0 °F 100% 30.09 in 3.0 mi ESE 5.8 mph - N/A   Overcast
3:15 PM 32.0 °F 26.4 °F 32.0 °F 100% 30.10 in 3.0 mi East 5.8 mph - N/A   Overcast
3:35 PM 32.0 °F 26.4 °F 32.0 °F 100% 30.11 in 3.0 mi East 5.8 mph - N/A Rain Light Rain
3:55 PM 32.0 °F 26.4 °F 32.0 °F 100% 30.10 in 3.0 mi ESE 5.8 mph - N/A   Overcast
4:15 PM 32.0 °F 27.5 °F 32.0 °F 100% 30.11 in 2.5 mi East 4.6 mph - N/A   Overcast
4:35 PM 32.0 °F 27.5 °F 32.0 °F 100% 30.11 in 2.0 mi ESE 4.6 mph - N/A   Overcast
4:55 PM 32.0 °F 27.5 °F 32.0 °F 100% 30.12 in 2.5 mi ESE 4.6 mph - N/A   Overcast
5:15 PM 32.0 °F 27.5 °F 32.0 °F 100% 30.13 in 2.5 mi ESE 4.6 mph - N/A   Overcast
5:35 PM 32.0 °F - 32.0 °F 100% 30.14 in 2.0 mi Calm Calm - N/A   Overcast
5:55 PM 32.0 °F 28.7 °F 32.0 °F 100% 30.14 in 3.0 mi East 3.5 mph - N/A   Overcast
6:15 PM 32.0 °F 28.7 °F 32.0 °F 100% 30.15 in 2.5 mi East 3.5 mph - N/A   Overcast
6:35 PM 32.0 °F - 32.0 °F 100% 30.17 in 1.8 mi Calm Calm - N/A   Overcast
6:55 PM 32.0 °F - 32.0 °F 100% 30.17 in 1.0 mi Calm Calm - N/A   Overcast
7:15 PM 32.0 °F - 32.0 °F 100% 30.18 in 0.8 mi Calm Calm - N/A   Overcast
7:35 PM 32.0 °F - 32.0 °F 100% 30.18 in 0.8 mi Calm Calm - N/A   Overcast
7:55 PM 32.0 °F - 32.0 °F 100% 30.19 in 0.8 mi Calm Calm - N/A   Overcast
8:15 PM 32.0 °F - 32.0 °F 100% 30.19 in 0.8 mi Calm Calm - N/A   Overcast
8:35 PM 32.0 °F - 32.0 °F 100% 30.20 in 0.8 mi Calm Calm - N/A   Overcast
8:55 PM 32.0 °F - 32.0 °F 100% 30.20 in 0.5 mi Calm Calm - N/A Snow Snow
9:15 PM 32.0 °F 28.7 °F 32.0 °F 100% 30.20 in 0.5 mi NW 3.5 mph - N/A Fog Fog
9:35 PM 32.0 °F - 32.0 °F 100% 30.21 in 0.2 mi Calm Calm - N/A Fog Fog
9:55 PM 32.0 °F 28.7 °F 32.0 °F 100% 30.21 in 0.2 mi WNW 3.5 mph - N/A Fog Fog
10:15 PM 32.0 °F 28.7 °F 32.0 °F 100% 30.21 in 0.2 mi WNW 3.5 mph - N/A Fog Fog
10:35 PM 32.0 °F 28.7 °F 32.0 °F 100% 30.22 in 0.2 mi West 3.5 mph - N/A Fog Fog
10:55 PM 32.0 °F - 32.0 °F 100% 30.21 in 0.5 mi Calm Calm - N/A Fog Fog